QPF
0.04 0.07 0.05 0.00 0.00 0.00 0.00 0.00 0.00 0.00 0.00 0.00 0.00 0.00 0.00 0.01 0.02 0.01 0.04 0.03 0.01 0.01 0.00 0.00 0.00 0.02 0.01 0.03 0.09 0.05 0.07 0.06 0.04 0.03 0.05 0.01 0.01 0.00 0.00 0.00 0.00 0.00 0.00
0.00 0.00 0.06 0.01 0.00 0.00 0.00 0.00 0.00 0.00 0.00 0.00 0.00 0.00 0.00 0.00 0.00 0.00 0.00 0.00 0.01 0.01 0.00 0.00 0.00 0.00 0.00 0.01 0.03 0.03 0.06 0.03 0.09 0.19 0.03 0.02 0.00 0.00 0.00 0.00 0.00 0.00 0.00
0.00 0.00 0.02 0.01 0.00 0.00 0.00 0.00 0.00 0.00 0.00 0.00 0.00 0.01 0.00 0.00 0.00 0.00 0.00 0.02 0.01 0.01 0.00 0.00 0.00 0.00 0.01 0.04 0.03 0.09 0.10 0.11 0.08 0.10 0.09 0.04 0.00 0.00 0.00 0.00 0.00 0.00 0.01
0.00 0.00 0.00 0.00 0.00 0.00 0.00 0.00 0.00 0.00 0.00 0.00 0.00 0.05 0.00 0.00 0.00 0.00 0.00 0.03 0.00 0.00 0.00 0.00 0.00 0.00 0.01 0.03 0.03 0.07 0.07 0.05 0.02 0.01 0.00 0.00 0.00 0.00 0.00 0.00 0.00 0.00 0.00
0.00 0.00 0.00 0.00 0.00 0.00 0.00 0.00 0.00 0.00 0.00 0.00 0.00 0.00 0.00 0.00 0.00 0.01 0.02 0.01 0.01 0.00 0.00 0.00 0.00 0.00 0.00 0.01 0.00 0.01 0.01 0.00 0.00 0.00 0.00 0.00 0.00 0.00 0.00 0.00 0.00 0.00 0.00
0.00 0.00 0.00 0.00 0.00 0.00 0.00 0.00 0.00 0.00 0.00 0.00 0.00 0.00 0.00 0.00 0.00 0.02 0.02 0.00 0.00 0.00 0.00 0.00 0.00 0.00 0.00 0.00 0.00 0.00 0.00 0.00 0.00 0.00 0.00 0.00 0.00 0.00 0.00 0.00 0.01 0.00 0.00
0.00 0.05 0.13 0.01 0.00 0.00 0.00 0.00 0.00 0.00 0.00 0.00 0.00 0.00 0.00 0.00 0.00 0.01 0.01 0.00 0.00 0.00 0.00 0.00 0.00 0.00 0.00 0.00 0.00 0.00 0.01 0.00 0.00 0.00 0.00 0.00 0.00 0.00 0.00 0.00 0.00 0.00 0.00
0.01 0.02 0.18 0.04 0.01 0.00 0.00 0.00 0.00 0.00 0.00 0.00 0.00 0.00 0.00 0.00 0.01 0.01 0.00 0.00 0.00 0.00 0.00 0.00 0.00 0.00 0.00 0.00 0.00 0.01 0.01 0.00 0.00 0.01 0.00 0.00 0.00 0.00 0.00 0.00 0.00 0.00 0.00
0.03 0.00 0.03 0.10 0.01 0.00 0.00 0.00 0.00 0.00 0.00 0.00 0.00 0.00 0.00 0.00 0.00 0.00 0.00 0.00 0.00 0.00 0.00 0.00 0.00 0.00 0.00 0.00 0.00 0.01 0.01 0.00 0.00 0.00 0.00 0.00 0.00 0.00 0.00 0.00 0.00 0.00 0.01
0.00 0.00 0.00 0.03 0.00 0.00 0.00 0.00 0.00 0.00 0.00 0.00 0.00 0.00 0.00 0.00 0.00 0.00 0.00 0.00 0.00 0.00 0.00 0.00 0.00 0.00 0.00 0.00 0.00 0.00 0.02 0.02 0.00 0.01 0.02 0.00 0.00 0.00 0.00 0.00 0.00 0.00 0.00
0.00 0.00 0.00 0.00 0.00 0.00 0.00 0.00 0.00 0.00 0.00 0.00 0.00 0.00 0.00 0.00 0.00 0.00 0.00 0.00 0.00 0.00 0.00 0.00 0.00 0.00 0.00 0.00 0.00 0.00 0.00 0.00 0.01 0.02 0.03 0.00 0.00 0.00 0.00 0.00 0.00 0.00 0.00
0.00 0.00 0.00 0.00 0.00 0.00 0.00 0.02 0.00 0.00 0.00 0.00 0.00 0.00 0.00 0.00 0.00 0.00 0.00 0.00 0.00 0.00 0.00 0.00 0.00 0.00 0.00 0.00 0.01 0.00 0.00 0.00 0.02 0.01 0.00 0.00 0.00 0.00 0.00 0.00 0.00 0.00 0.00
0.00 0.00 0.00 0.00 0.00 0.00 0.00 0.00 0.00 0.00 0.00 0.00 0.00 0.00 0.00 0.00 0.00 0.00 0.00 0.00 0.00 0.00 0.00 0.00 0.00 0.00 0.00 0.00 0.01 0.01 0.00 0.00 0.00 0.00 0.00 0.00 0.00 0.00 0.00 0.00 0.00 0.00 0.00
0.00 0.00 0.00 0.00 0.00 0.00 0.00 0.00 0.00 0.00 0.00 0.00 0.00 0.00 0.00 0.00 0.00 0.00 0.00 0.00 0.00 0.00 0.00 0.00 0.00 0.00 0.00 0.00 0.00 0.00 0.00 0.00 0.00 0.01 0.00 0.00 0.00 0.00 0.00 0.00 0.00 0.00 0.00
0.00 0.00 0.00 0.00 0.00 0.00 0.00 0.00 0.00 0.00 0.00 0.00 0.00 0.00 0.00 0.00 0.00 0.00 0.00 0.00 0.00 0.00 0.00 0.00 0.00 0.01 0.01 0.00 0.00 0.01 0.00 0.00 0.00 0.01 0.00 0.00 0.00 0.00 0.00 0.00 0.00 0.00 0.00
0.00 0.00 0.00 0.00 0.00 0.00 0.00 0.00 0.00 0.00 0.00 0.00 0.00 0.00 0.00 0.00 0.00 0.01 0.00 0.00 0.00 0.01 0.00 0.01 0.00 0.01 0.00 0.00 0.00 0.00 0.00 0.00 0.00 0.00 0.00 0.00 0.00 0.00 0.00 0.00 0.00 0.01 0.01
0.00 0.00 0.00 0.00 0.00 0.00 0.00 0.00 0.00 0.00 0.00 0.00 0.00 0.00 0.00 0.00 0.00 0.03 0.00 0.00 0.00 0.01 0.00 0.00 0.00 0.01 0.00 0.00 0.00 0.00 0.00 0.00 0.00 0.00 0.00 0.00 0.02 0.00 0.00 0.00 0.01 0.03 0.01
0.00 0.00 0.00 0.00 0.00 0.00 0.00 0.00 0.00 0.00 0.00 0.00 0.00 0.00 0.00 0.00 0.00 0.00 0.00 0.00 0.00 0.01 0.01 0.00 0.00 0.01 0.00 0.00 0.00 0.00 0.00 0.00 0.00 0.00 0.00 0.00 0.00 0.00 0.02 0.01 0.00 0.00 0.00
0.00 0.00 0.00 0.00 0.00 0.00 0.00 0.00 0.00 0.00 0.00 0.00 0.00 0.00 0.00 0.00 0.00 0.00 0.00 0.00 0.00 0.00 0.00 0.00 0.00 0.00 0.00 0.00 0.00 0.00 0.00 0.00 0.00 0.00 0.00 0.00 0.01 0.01 0.05 0.02 0.02 0.00 0.00
0.00 0.00 0.00 0.00 0.00 0.00 0.00 0.00 0.00 0.00 0.00 0.00 0.00 0.00 0.00 0.00 0.00 0.00 0.00 0.00 0.00 0.00 0.00 0.00 0.00 0.00 0.00 0.00 0.00 0.00 0.00 0.00 0.00 0.00 0.00 0.00 0.00 0.02 0.02 0.02 0.03 0.00 0.00
0.00 0.00 0.00 0.00 0.00 0.00 0.00 0.00 0.00 0.00 0.00 0.00 0.00 0.00 0.00 0.00 0.00 0.00 0.00 0.00 0.00 0.00 0.00 0.00 0.00 0.00 0.00 0.00 0.00 0.00 0.00 0.00 0.00 0.00 0.00 0.00 0.01 0.00 0.02 0.01 0.02 0.00 0.00
0.00 0.00 0.00 0.00 0.00 0.00 0.00 0.00 0.00 0.00 0.00 0.00 0.00 0.00 0.00 0.00 0.00 0.00 0.00 0.00 0.00 0.00 0.00 0.00 0.00 0.00 0.00 0.00 0.00 0.00 0.00 0.00 0.00 0.00 0.00 0.01 0.02 0.00 0.00 0.01 0.01 0.02 0.00
0.00 0.00 0.00 0.00 0.00 0.00 0.00 0.00 0.00 0.00 0.00 0.00 0.00 0.00 0.00 0.00 0.00 0.00 0.00 0.00 0.00 0.00 0.00 0.00 0.00 0.00 0.00 0.00 0.00 0.00 0.00 0.00 0.00 0.00 0.00 0.01 0.01 0.00 0.00 0.01 0.02 0.00 0.03
0.00 0.00 0.00 0.00 0.00 0.00 0.00 0.00 0.00 0.00 0.00 0.00 0.00 0.00 0.00 0.00 0.00 0.00 0.00 0.00 0.00 0.00 0.00 0.00 0.00 0.00 0.00 0.00 0.01 0.00 0.00 0.00 0.00 0.00 0.01 0.00 0.00 0.00 0.00 0.01 0.02 0.03 0.02
0.00 0.00 0.00 0.00 0.00 0.00 0.00 0.00 0.00 0.00 0.00 0.00 0.00 0.00 0.00 0.00 0.00 0.00 0.00 0.00 0.00 0.00 0.00 0.00 0.00 0.00 0.00 0.00 0.00 0.01 0.00 0.01 0.01 0.02 0.01 0.00 0.00 0.00 0.00 0.00 0.01 0.00 0.05
0.00 0.00 0.00 0.00 0.00 0.00 0.00 0.00 0.00 0.00 0.00 0.00 0.00 0.00 0.00 0.00 0.00 0.00 0.00 0.00 0.00 0.00 0.00 0.00 0.00 0.00 0.00 0.00 0.00 0.03 0.03 0.02 0.01 0.01 0.05 0.01 0.00 0.00 0.00 0.00 0.00 0.02 0.03
MSLP
1015.13 1014.83 1014.77 1014.80 1014.91 1014.96 1015.01 1015.04 1015.18 1015.33 1015.37 1015.49 1015.58 1015.70 1015.98 1016.18 1016.16 1016.03 1016.22 1016.22 1016.34 1016.54 1016.75 1016.89 1016.99 1017.04 1017.17 1017.37 1017.30 1017.17 1017.22 1017.34 1017.54 1017.55 1017.55 1017.57 1017.69 1017.73 1017.66 1017.60 1017.67 1017.70 1017.77
1014.59 1014.72 1014.88 1014.89 1015.01 1015.05 1015.10 1015.24 1015.37 1015.53 1015.66 1015.75 1015.82 1015.84 1016.11 1016.27 1016.33 1016.30 1016.49 1016.56 1016.60 1016.74 1016.81 1016.97 1017.20 1017.28 1017.41 1017.63 1017.68 1017.53 1017.63 1017.68 1017.73 1017.71 1017.66 1017.85 1018.03 1018.08 1017.96 1018.00 1018.07 1018.10 1018.18
1014.74 1014.77 1014.95 1014.84 1015.11 1015.21 1015.27 1015.37 1015.56 1015.74 1015.90 1015.96 1016.03 1016.09 1016.33 1016.39 1016.51 1016.48 1016.63 1016.72 1016.73 1016.84 1016.92 1017.07 1017.28 1017.52 1017.60 1017.72 1017.67 1017.81 1017.96 1018.04 1018.17 1018.09 1018.11 1018.19 1018.19 1018.21 1018.29 1018.24 1018.18 1018.32 1018.35
1014.67 1014.93 1015.06 1015.15 1015.25 1015.34 1015.46 1015.52 1015.71 1015.93 1016.08 1016.19 1016.29 1016.25 1016.43 1016.48 1016.57 1016.62 1016.84 1016.89 1016.91 1016.97 1017.00 1017.12 1017.32 1017.58 1017.78 1017.86 1018.05 1018.19 1018.18 1018.23 1018.19 1018.31 1018.48 1018.38 1018.31 1018.38 1018.41 1018.49 1018.56 1018.57 1018.68
1014.91 1015.02 1015.14 1015.18 1015.33 1015.45 1015.60 1015.70 1015.89 1016.12 1016.31 1016.41 1016.43 1016.41 1016.45 1016.51 1016.63 1016.76 1016.97 1017.05 1017.14 1017.24 1017.23 1017.34 1017.51 1017.80 1018.04 1018.20 1018.28 1018.36 1018.46 1018.48 1018.35 1018.38 1018.71 1018.80 1018.74 1018.66 1018.73 1018.74 1018.79 1018.81 1018.83
1014.96 1015.10 1015.14 1015.25 1015.32 1015.50 1015.70 1015.88 1016.09 1016.27 1016.42 1016.52 1016.55 1016.56 1016.58 1016.60 1016.69 1016.89 1017.06 1017.18 1017.34 1017.47 1017.52 1017.54 1017.72 1017.92 1018.08 1018.15 1018.33 1018.49 1018.49 1018.34 1018.21 1018.28 1018.84 1018.78 1018.78 1018.87 1018.91 1018.88 1018.90 1018.96 1019.04
1015.10 1015.27 1015.25 1015.37 1015.42 1015.64 1015.86 1015.99 1016.17 1016.36 1016.49 1016.50 1016.57 1016.54 1016.57 1016.64 1016.77 1017.05 1017.17 1017.42 1017.51 1017.61 1017.73 1017.81 1017.93 1018.02 1018.13 1018.07 1018.21 1018.38 1018.39 1018.20 1018.27 1018.51 1018.86 1018.79 1018.68 1018.52 1018.74 1018.92 1018.97 1019.13 1019.28
1015.14 1015.46 1015.53 1015.60 1015.65 1015.74 1015.92 1016.11 1016.19 1016.32 1016.44 1016.45 1016.54 1016.53 1016.68 1016.79 1016.83 1017.17 1017.40 1017.56 1017.60 1017.74 1017.84 1017.94 1018.07 1018.11 1018.21 1018.15 1018.17 1018.32 1018.52 1018.23 1018.46 1018.74 1018.79 1018.61 1018.56 1018.75 1018.96 1019.03 1019.00 1019.08 1019.22
1015.38 1015.61 1015.81 1015.76 1015.89 1015.98 1016.05 1016.14 1016.24 1016.38 1016.49 1016.54 1016.52 1016.68 1016.80 1016.83 1016.97 1017.26 1017.54 1017.68 1017.75 1017.72 1017.90 1018.14 1018.23 1018.30 1018.24 1018.16 1018.25 1018.34 1018.51 1018.53 1018.76 1018.94 1018.97 1018.88 1018.85 1019.01 1019.10 1019.15 1019.21 1019.19 1019.15
1015.77 1015.84 1016.16 1016.30 1016.33 1016.36 1016.30 1016.18 1016.33 1016.45 1016.55 1016.60 1016.65 1016.85 1016.86 1016.99 1017.16 1017.49 1017.77 1017.88 1017.87 1017.95 1018.02 1018.22 1018.33 1018.40 1018.38 1018.21 1018.23 1018.48 1018.52 1018.52 1018.60 1018.76 1018.88 1018.87 1018.92 1018.76 1018.84 1018.91 1018.90 1018.93 1019.06
1016.16 1016.19 1016.32 1016.52 1016.67 1016.65 1016.49 1016.41 1016.47 1016.56 1016.61 1016.68 1016.86 1017.00 1017.09 1017.35 1017.53 1017.67 1017.98 1017.99 1018.06 1018.25 1018.22 1018.31 1018.31 1018.28 1018.34 1018.30 1018.10 1018.06 1018.26 1018.55 1018.61 1018.56 1018.70 1018.73 1018.80 1018.48 1018.49 1018.56 1018.70 1018.76 1018.86
1016.31 1016.38 1016.44 1016.55 1016.77 1016.81 1016.68 1016.72 1016.77 1016.74 1016.91 1016.98 1017.16 1017.39 1017.49 1017.80 1017.96 1017.96 1018.12 1018.11 1018.24 1018.32 1018.25 1018.27 1018.36 1018.24 1018.07 1018.26 1018.30 1018.16 1018.09 1018.03 1018.32 1018.47 1018.53 1018.64 1018.48 1018.29 1018.23 1018.30 1018.41 1018.62 1018.79
1015.94 1016.28 1016.47 1016.55 1016.70 1016.86 1016.96 1017.10 1017.03 1017.18 1017.11 1017.10 1017.37 1017.63 1017.73 1017.96 1018.05 1018.07 1018.19 1018.20 1018.34 1018.45 1018.39 1018.38 1018.59 1018.34 1018.07 1018.20 1018.10 1017.96 1017.97 1017.82 1017.83 1018.04 1018.29 1018.31 1018.21 1018.03 1018.06 1018.21 1018.36 1018.52 1018.63
1015.88 1015.94 1016.36 1016.55 1016.75 1016.86 1016.96 1017.10 1017.20 1017.30 1017.34 1017.51 1017.51 1017.60 1017.73 1017.91 1017.99 1018.12 1018.26 1018.27 1018.42 1018.51 1018.40 1018.44 1018.46 1018.34 1018.23 1017.91 1017.63 1017.48 1017.41 1017.49 1017.54 1017.92 1018.13 1018.14 1017.96 1017.79 1017.71 1017.96 1018.20 1018.44 1018.42
1015.70 1015.86 1016.26 1016.58 1016.85 1016.88 1016.95 1017.07 1017.29 1017.25 1017.40 1017.66 1017.60 1017.57 1017.50 1017.57 1017.90 1018.13 1018.52 1018.47 1018.43 1018.38 1018.38 1018.31 1018.42 1018.27 1018.02 1017.48 1017.24 1017.22 1016.88 1016.99 1017.37 1017.79 1017.91 1017.88 1017.99 1018.09 1018.04 1018.07 1018.04 1018.12 1018.24
1015.80 1015.99 1016.30 1016.63 1016.72 1016.84 1017.02 1017.11 1017.04 1017.03 1017.37 1017.63 1017.59 1017.57 1017.50 1017.59 1017.81 1018.14 1018.32 1018.25 1018.27 1018.29 1018.20 1018.07 1017.97 1018.02 1017.57 1017.04 1016.92 1017.11 1016.75 1016.93 1017.08 1017.33 1017.55 1017.75 1017.97 1018.07 1018.09 1018.02 1017.92 1017.92 1017.91
1015.39 1015.78 1016.14 1016.41 1016.58 1016.95 1016.96 1017.13 1017.05 1017.03 1017.06 1017.20 1017.32 1017.34 1017.21 1017.50 1017.53 1017.76 1018.05 1017.99 1018.21 1017.99 1017.92 1017.84 1017.82 1017.80 1017.23 1016.78 1017.08 1017.07 1017.06 1017.16 1017.59 1017.83 1017.72 1017.60 1017.62 1017.77 1018.03 1018.10 1017.99 1017.84 1017.59
1015.01 1015.67 1016.06 1016.23 1016.54 1016.84 1016.99 1016.79 1016.84 1016.92 1017.03 1017.08 1017.17 1017.35 1017.48 1017.44 1017.50 1017.72 1018.07 1018.25 1017.87 1017.97 1017.73 1018.03 1017.85 1017.54 1017.52 1017.12 1017.12 1017.16 1016.96 1017.10 1017.27 1017.21 1016.83 1017.13 1017.52 1017.79 1017.47 1017.36 1017.30 1017.40 1017.48
1014.56 1015.24 1015.77 1016.02 1016.26 1016.52 1016.72 1016.68 1016.79 1016.66 1016.91 1016.90 1016.96 1017.03 1017.40 1017.44 1017.31 1017.46 1018.04 1017.96 1017.98 1018.14 1017.84 1017.80 1017.77 1017.77 1017.77 1017.62 1017.50 1017.58 1017.21 1017.42 1017.44 1016.94 1016.71 1016.97 1017.34 1017.21 1016.90 1016.93 1017.35 1017.04 1017.19
1014.07 1014.89 1015.40 1015.63 1016.09 1016.31 1016.56 1016.81 1016.91 1016.91 1016.84 1016.82 1016.74 1016.70 1016.94 1017.20 1017.12 1017.13 1017.91 1017.94 1017.71 1018.00 1018.13 1017.78 1018.00 1017.63 1017.70 1017.68 1017.74 1017.87 1017.51 1017.48 1017.32 1017.30 1016.85 1016.47 1016.47 1016.42 1016.16 1016.51 1016.50 1016.83 1016.92
1013.87 1014.55 1014.99 1015.30 1015.78 1016.22 1016.56 1016.92 1017.10 1017.08 1016.98 1016.82 1016.56 1016.55 1016.79 1017.12 1017.12 1017.12 1017.75 1017.78 1017.70 1017.76 1017.97 1017.96 1018.09 1017.66 1017.69 1017.65 1017.71 1017.91 1017.37 1017.15 1017.56 1017.74 1017.68 1017.54 1017.02 1016.48 1016.06 1016.16 1016.30 1016.75 1016.91
1013.38 1014.13 1014.72 1014.83 1015.08 1015.67 1015.91 1016.13 1016.35 1016.52 1016.57 1016.46 1016.32 1016.52 1016.57 1016.95 1017.07 1017.08 1017.37 1017.63 1017.55 1017.77 1018.07 1018.05 1018.08 1018.10 1017.86 1017.78 1018.17 1018.62 1018.58 1017.89 1017.97 1017.91 1017.83 1017.48 1016.92 1016.28 1016.38 1016.27 1016.40 1016.58 1016.83
1012.98 1013.56 1014.04 1014.39 1014.57 1015.05 1015.38 1015.79 1015.99 1016.23 1016.54 1016.73 1016.70 1016.78 1016.55 1016.44 1016.88 1016.94 1016.98 1017.32 1017.61 1017.83 1017.89 1017.88 1018.09 1018.15 1018.16 1018.14 1018.01 1018.53 1019.02 1018.92 1018.43 1017.35 1017.35 1017.09 1016.77 1016.56 1016.31 1016.29 1016.07 1016.40 1016.80
1012.22 1013.01 1013.44 1014.00 1014.42 1014.57 1015.04 1015.60 1015.89 1016.14 1016.55 1016.43 1016.40 1016.24 1016.25 1016.26 1016.33 1016.64 1016.77 1017.06 1017.35 1017.64 1017.75 1017.77 1017.91 1018.08 1018.22 1018.39 1018.23 1018.15 1018.36 1018.56 1018.83 1018.64 1017.53 1017.02 1016.65 1016.52 1016.36 1016.00 1016.18 1016.18 1016.54
1011.68 1012.25 1012.95 1013.61 1014.10 1014.24 1014.63 1015.06 1015.55 1015.96 1016.11 1015.92 1015.97 1015.96 1016.05 1016.14 1016.04 1016.07 1016.42 1016.61 1016.98 1017.27 1017.52 1017.70 1017.69 1017.77 1018.04 1018.37 1018.53 1018.58 1018.49 1018.65 1018.83 1019.11 1018.78 1017.80 1017.05 1016.49 1016.17 1015.82 1015.86 1015.98 1016.39
1011.18 1011.94 1012.68 1013.33 1013.70 1013.95 1014.20 1014.66 1015.14 1015.64 1015.83 1015.83 1016.05 1016.26 1016.28 1016.23 1016.16 1015.94 1016.16 1016.49 1016.62 1016.77 1017.15 1017.37 1017.56 1017.65 1017.86 1018.20 1018.32 1018.46 1018.67 1019.00 1019.00 1019.03 1019.08 1018.22 1017.83 1017.15 1016.47 1016.15 1015.96 1016.04 1016.35
Thickness
5760 5762 5764 5765 5766 5768 5769 5771 5772 5772 5772 5771 5771 5770 5767 5766 5766 5767 5766 5766 5763 5761 5758 5754 5752 5750 5748 5746 5747 5748 5747 5745 5742 5741 5741 5740 5737 5734 5734 5734 5734 5734 5734
5764 5763 5763 5764 5765 5767 5768 5769 5769 5770 5769 5769 5768 5768 5766 5765 5765 5767 5764 5764 5764 5761 5758 5755 5753 5751 5749 5745 5744 5745 5744 5743 5743 5742 5740 5737 5734 5733 5733 5732 5731 5731 5730
5763 5763 5762 5765 5765 5765 5767 5768 5767 5768 5768 5768 5767 5767 5765 5764 5764 5765 5764 5764 5763 5761 5760 5757 5754 5750 5747 5745 5745 5744 5743 5741 5740 5739 5737 5735 5734 5732 5730 5731 5731 5729 5728
5761 5762 5762 5763 5763 5764 5764 5766 5766 5766 5766 5766 5766 5766 5765 5765 5765 5765 5764 5764 5763 5761 5759 5758 5755 5751 5748 5746 5744 5743 5742 5740 5739 5737 5735 5734 5733 5731 5730 5730 5729 5728 5725
5759 5760 5760 5762 5762 5763 5763 5764 5764 5764 5764 5766 5766 5767 5768 5767 5767 5766 5765 5764 5762 5759 5759 5757 5755 5751 5748 5745 5745 5743 5741 5739 5739 5738 5735 5733 5731 5730 5729 5728 5727 5725 5724
5758 5758 5759 5761 5763 5763 5763 5763 5763 5763 5763 5764 5766 5767 5768 5768 5768 5767 5765 5764 5761 5758 5758 5757 5755 5752 5750 5748 5746 5744 5742 5742 5744 5742 5737 5735 5734 5730 5728 5728 5727 5724 5723
5756 5756 5758 5759 5761 5762 5761 5761 5761 5762 5762 5764 5765 5767 5768 5769 5769 5768 5766 5763 5761 5759 5758 5757 5755 5753 5752 5752 5750 5747 5745 5746 5747 5745 5740 5738 5736 5735 5730 5726 5726 5724 5722
5756 5754 5755 5756 5758 5760 5760 5760 5762 5763 5762 5764 5766 5767 5768 5769 5770 5768 5766 5764 5762 5761 5760 5758 5756 5756 5755 5754 5754 5751 5747 5749 5748 5746 5743 5743 5739 5734 5731 5726 5726 5726 5724
5752 5752 5753 5755 5755 5757 5759 5760 5761 5762 5762 5765 5767 5767 5768 5769 5770 5768 5766 5764 5764 5763 5761 5759 5757 5757 5757 5757 5755 5752 5749 5749 5749 5747 5744 5741 5738 5735 5732 5729 5727 5726 5726
5749 5748 5749 5750 5752 5754 5757 5760 5761 5762 5763 5765 5766 5767 5768 5769 5769 5767 5764 5763 5764 5762 5762 5760 5759 5758 5758 5759 5758 5754 5753 5752 5752 5749 5745 5743 5740 5739 5736 5734 5733 5731 5729
5745 5745 5745 5747 5749 5753 5756 5759 5761 5761 5763 5765 5765 5765 5766 5766 5766 5765 5763 5762 5763 5761 5761 5761 5761 5762 5760 5760 5761 5760 5756 5754 5753 5754 5751 5747 5743 5743 5742 5740 5736 5734 5733
5743 5746 5747 5748 5749 5751 5754 5758 5760 5761 5762 5764 5763 5762 5764 5763 5764 5764 5763 5763 5764 5764 5763 5761 5762 5763 5763 5763 5762 5763 5763 5763 5759 5757 5755 5750 5748 5747 5746 5744 5742 5738 5735
5748 5748 5748 5750 5750 5751 5753 5755 5756 5757 5760 5762 5759 5761 5762 5764 5765 5766 5766 5765 5766 5766 5767 5766 5763 5764 5766 5764 5766 5768 5767 5767 5766 5763 5758 5755 5753 5753 5750 5746 5744 5741 5739
5751 5753 5752 5751 5752 5752 5753 5754 5754 5754 5757 5758 5759 5762 5764 5767 5767 5767 5768 5766 5767 5769 5769 5769 5768 5767 5768 5768 5771 5773 5773 5771 5771 5766 5760 5758 5758 5759 5757 5751 5746 5742 5742
5753 5755 5754 5753 5752 5753 5754 5755 5753 5754 5757 5756 5757 5762 5765 5768 5768 5769 5767 5766 5769 5772 5772 5773 5772 5771 5773 5777 5775 5778 5780 5777 5773 5768 5765 5763 5760 5758 5757 5754 5751 5746 5743
5753 5753 5754 5753 5753 5754 5754 5754 5754 5755 5755 5754 5758 5761 5764 5768 5770 5770 5769 5770 5770 5773 5775 5777 5777 5776 5779 5782 5782 5779 5783 5779 5778 5776 5769 5767 5762 5761 5759 5757 5754 5752 5747
5758 5755 5753 5753 5752 5752 5753 5753 5753 5754 5756 5757 5760 5763 5766 5768 5771 5772 5771 5773 5774 5777 5778 5780 5779 5779 5785 5788 5786 5786 5785 5782 5775 5770 5770 5771 5769 5766 5764 5760 5759 5757 5755
5760 5756 5754 5755 5753 5751 5751 5753 5755 5755 5755 5757 5761 5765 5766 5770 5771 5773 5772 5771 5777 5776 5779 5778 5782 5783 5786 5789 5786 5785 5787 5783 5779 5777 5780 5776 5772 5769 5772 5770 5766 5764 5761
5765 5760 5756 5755 5755 5754 5752 5754 5756 5758 5755 5758 5762 5766 5767 5770 5772 5773 5773 5774 5776 5776 5779 5782 5783 5784 5783 5783 5783 5781 5784 5782 5780 5783 5784 5779 5776 5778 5779 5776 5770 5769 5766
5769 5764 5760 5758 5757 5756 5756 5755 5756 5757 5759 5761 5766 5769 5768 5770 5774 5776 5772 5773 5778 5779 5780 5785 5781 5786 5785 5784 5783 5780 5783 5784 5783 5782 5784 5785 5785 5785 5784 5780 5782 5776 5769
5769 5765 5762 5760 5759 5756 5754 5753 5753 5755 5759 5763 5768 5770 5772 5770 5773 5776 5773 5774 5777 5779 5779 5783 5782 5785 5784 5786 5782 5778 5784 5786 5780 5780 5781 5780 5781 5785 5789 5786 5783 5778 5771
5770 5767 5764 5765 5764 5762 5759 5759 5760 5761 5763 5767 5769 5770 5772 5772 5773 5775 5775 5774 5775 5777 5777 5779 5781 5779 5783 5785 5775 5770 5761 5775 5778 5781 5781 5781 5785 5790 5787 5786 5782 5780 5773
5773 5770 5768 5768 5769 5767 5765 5764 5765 5764 5762 5762 5765 5767 5772 5776 5775 5776 5777 5776 5775 5776 5776 5779 5778 5777 5777 5781 5781 5769 5759 5757 5766 5784 5783 5786 5787 5788 5789 5787 5786 5781 5775
5779 5774 5773 5772 5769 5770 5767 5763 5764 5761 5757 5762 5767 5773 5776 5777 5777 5777 5778 5777 5777 5775 5778 5779 5781 5778 5776 5773 5778 5780 5777 5773 5762 5761 5778 5786 5790 5789 5789 5791 5785 5782 5779
5784 5780 5776 5774 5772 5772 5770 5768 5765 5763 5764 5768 5770 5775 5776 5777 5778 5780 5779 5779 5778 5776 5778 5779 5781 5782 5778 5772 5770 5771 5772 5771 5768 5762 5759 5773 5786 5791 5793 5791 5786 5785 5781
5789 5783 5779 5774 5771 5773 5773 5770 5768 5765 5765 5766 5768 5766 5768 5772 5776 5779 5778 5777 5778 5780 5779 5780 5780 5781 5779 5775 5773 5772 5769 5764 5764 5762 5759 5769 5773 5782 5788 5789 5788 5785 5781